GFSFLT2_850_temp_207.txt.gz
Temp
17 17 18 18 18 18 18 18 17 16 16 16 16 15 15 16 16 16 16 15 17 17 16 16 16 16 14 14 14 14 14 14
17 17 17 17 17 17 17 17 17 16 16 16 15 15 15 15 15 16 15 15 16 16 16 16 16 15 14 13 13 13 13 13
17 17 16 17 16 16 16 16 16 16 16 16 15 15 14 14 15 14 15 15 15 16 16 16 15 14 14 13 13 13 13 12
17 16 16 16 16 16 16 15 15 15 15 15 15 14 13 13 13 14 14 15 15 15 16 15 14 14 14 13 13 13 13 13
17 16 15 15 16 15 15 15 15 14 14 14 14 14 13 12 13 13 14 14 14 14 15 15 13 13 14 13 13 13 13 13
16 15 15 15 15 15 15 14 14 14 14 14 14 13 13 13 12 12 13 14 13 14 15 14 13 13 14 13 13 12 12 12
19 16 15 15 15 15 15 14 14 14 13 14 13 14 14 14 13 12 12 13 13 12 14 13 12 11 12 12 12 12 12 11
19 18 17 16 15 15 15 14 14 14 14 14 13 14 14 14 13 12 12 12 13 13 13 13 12 10 11 11 10 11 11 10
20 18 16 16 16 15 14 14 13 14 14 13 13 13 13 13 13 13 12 12 12 12 11 11 11 10 10 9 9 9 9 9
19 17 17 17 17 16 15 14 13 14 15 14 13 13 12 12 13 13 12 12 11 11 11 10 10 9 9 8 8 8 8 8
19 18 18 18 18 17 16 14 13 14 15 14 13 12 12 11 12 13 11 12 11 10 10 10 10 9 8 7 8 8 8 7
20 19 18 17 16 15 14 14 14 15 14 14 13 12 12 12 11 11 11 10 10 9 9 9 9 9 7 6 6 7 7 6
19 18 18 16 15 13 13 14 13 14 13 13 13 12 12 12 11 11 10 10 10 9 9 8 7 8 7 6 5 5 4 3
19 18 18 16 16 14 13 13 13 13 13 12 13 12 12 12 11 11 10 9 9 8 8 7 7 7 7 6 2 2 3 3
17 17 16 16 15 13 12 12 12 11 12 12 12 12 11 11 11 10 10 8 9 8 7 8 7 6 8 8 2 2 2 1
14 14 15 15 15 13 13 12 11 11 11 11 11 11 11 11 10 10 9 9 8 8 7 7 8 7 6 7 8 8 3 1
13 13 12 12 14 13 13 13 12 11 10 10 10 10 10 10 11 9 10 8 8 7 7 7 7 8 8 7 7 7 8 4
12 12 12 11 11 12 12 12 12 11 10 9 9 9 10 9 9 8 9 8 8 7 7 7 7 7 8 6 7 8 7 8
12 11 11 11 11 11 11 11 11 10 10 9 9 9 9 9 8 7 7 7 7 7 7 7 7 7 8 6 7 8 9 8
12 13 12 11 11 11 10 10 10 10 9 9 8 8 9 9 9 8 7 7 6 6 6 6 6 7 7 6 6 6 7 8

GFSFLT2_850_temp_210.txt.gz
Temp
21 20 19 19 19 19 19 18 18 17 17 17 17 17 17 16 17 17 17 16 16 16 16 16 16 15 15 15 14 14 14 14
20 20 19 18 18 18 18 18 17 17 16 16 16 16 16 16 16 16 16 16 16 16 15 15 15 15 15 15 14 14 14 14
19 19 18 18 17 17 17 17 17 16 16 16 15 15 15 15 15 15 16 15 15 15 15 16 15 15 15 15 15 14 14 14
20 19 18 17 17 17 17 16 16 15 15 15 15 14 14 15 15 15 16 15 14 15 15 15 15 14 14 14 14 14 14 14
21 18 17 17 16 16 16 15 15 15 15 15 15 14 14 14 15 15 15 15 14 14 14 14 14 14 14 13 14 14 13 13
20 19 17 16 16 16 15 15 14 14 15 14 14 14 14 13 14 14 14 14 14 14 13 13 13 13 14 14 13 13 13 12
21 19 18 17 16 16 15 15 14 15 14 14 14 14 14 13 13 12 13 13 13 14 13 13 12 12 13 13 12 12 12 11
20 20 18 17 16 16 15 15 14 14 14 14 14 14 14 13 13 13 13 13 13 14 13 12 12 12 12 11 11 11 11 11
20 20 18 17 17 16 16 15 14 14 14 14 13 13 14 14 14 14 13 12 13 13 12 12 12 11 11 10 10 10 10 9
20 19 19 18 17 16 16 15 15 14 14 13 13 13 13 13 13 13 12 12 12 12 12 11 11 11 10 9 9 9 9 8
22 19 18 18 16 17 16 16 16 15 16 14 13 13 14 14 12 12 12 12 12 12 11 11 10 10 10 9 9 9 8 7
22 21 19 17 16 16 16 16 17 16 16 16 15 13 13 13 13 12 12 11 11 11 11 10 10 9 8 8 8 7 7 7
22 21 19 17 18 17 17 17 16 16 15 14 15 13 12 12 13 12 11 12 11 10 10 10 8 8 8 6 5 5 6 6
18 16 17 18 18 17 17 16 15 14 13 13 13 12 13 13 13 12 12 9 9 9 10 8 8 8 7 6 2 2 3 4
14 14 15 17 17 16 16 15 13 12 12 12 11 12 11 12 12 12 11 10 9 9 9 9 8 7 7 8 3 3 2 1
12 13 12 13 12 14 15 15 13 12 12 12 11 11 10 10 11 11 11 11 9 9 9 8 9 9 6 7 8 8 4 1
12 11 11 11 11 11 11 12 13 11 11 11 11 10 10 10 10 10 10 10 10 9 8 8 8 9 7 6 7 7 6 4
12 12 12 12 12 11 10 10 10 11 11 10 11 10 9 9 9 9 8 10 9 10 9 8 8 8 8 8 7 7 6 7
11 11 11 11 11 11 11 11 11 10 10 11 10 10 9 9 9 8 8 9 8 9 8 8 8 8 7 7 7 7 8 7
10 10 10 10 10 10 10 11 11 11 11 10 10 10 10 9 8 9 8 8 7 5 7 8 7 7 7 7 7 6 7 7

GFSFLT2_850_temp_216.txt.gz
Temp
21 20 20 19 19 19 19 19 19 18 18 18 19 18 18 18 18 17 17 17 16 16 16 16 16 16 15 15 15 15 15 14
21 21 20 19 19 18 19 18 18 18 18 18 18 18 18 18 17 17 17 16 16 16 16 16 16 15 14 13 14 14 14 15
20 21 20 19 19 18 18 18 18 18 18 17 17 17 17 17 17 17 17 16 16 16 16 16 16 15 14 14 14 13 14 15
21 20 20 19 19 18 18 18 17 17 17 17 17 17 17 17 16 16 17 16 16 16 16 16 15 15 14 14 14 13 14 13
23 22 21 20 20 18 18 17 17 17 16 16 16 16 15 15 15 15 15 15 15 15 15 16 15 15 14 13 13 13 13 13
21 21 20 19 18 18 18 17 17 16 16 16 15 15 15 14 14 14 15 15 15 15 15 16 15 15 13 13 12 13 12 13
22 21 21 20 19 18 18 17 17 16 16 15 15 14 14 14 14 14 16 14 14 14 15 15 15 14 13 13 12 12 12 12
22 21 20 19 19 18 18 17 17 16 14 15 15 14 14 13 13 13 17 16 13 14 14 15 15 13 13 11 12 12 11 11
19 19 19 19 19 18 18 17 17 15 16 14 14 14 14 14 13 14 14 16 13 13 13 14 14 12 12 11 11 11 11 11
20 19 19 19 19 18 18 18 17 16 16 14 14 14 14 14 14 13 13 13 12 12 13 13 12 12 11 10 10 10 10 10
20 18 17 17 17 17 16 16 16 17 16 16 14 13 15 15 14 13 12 12 11 10 12 12 12 11 10 10 9 9 8 9
18 16 15 15 15 15 14 14 15 16 16 16 16 15 15 15 13 12 12 11 11 6 7 8 11 10 9 9 8 8 8 8
14 13 14 15 15 14 14 14 15 16 16 16 16 15 15 14 14 12 12 11 12 10 7 7 8 8 9 8 7 7 7 7
12 12 12 12 13 14 14 14 13 14 14 15 14 13 12 12 13 11 11 11 11 9 7 7 6 8 8 7 5 5 6 6
12 12 11 12 12 13 13 13 12 12 13 12 13 12 11 11 11 11 11 11 10 11 10 7 6 7 8 7 4 4 4 4
12 12 12 12 11 10 10 10 10 10 11 11 11 10 11 10 11 10 10 10 10 9 8 6 6 6 6 8 8 7 5 2
10 10 11 10 11 12 12 11 11 11 11 11 11 10 10 10 10 10 9 9 9 8 8 7 6 6 7 7 7 7 5 4
9 9 9 9 9 9 10 10 10 10 11 11 12 12 11 9 9 9 9 9 9 9 9 7 8 6 7 7 7 7 7 7
8 8 9 8 9 9 9 9 10 8 9 10 11 11 11 11 9 9 8 9 8 8 8 8 7 7 6 6 7 6 7 8
7 9 9 9 8 9 9 9 8 8 9 9 9 9 10 10 10 10 10 8 8 7 8 8 7 6 6 7 6 4 4 6

GFSFLT2_850_temp_219.txt.gz
Temp
21 20 20 20 19 19 19 19 19 19 19 19 19 19 18 18 18 18 18 18 18 18 18 17 17 16 15 15 15 15 14 13
21 20 20 20 19 19 19 19 19 18 18 18 18 18 18 18 17 17 17 17 18 17 17 17 17 16 15 15 14 14 14 14
21 20 20 20 19 19 18 18 18 18 18 18 18 17 17 17 17 17 16 17 17 17 17 16 16 16 15 14 14 14 14 14
22 21 20 20 19 19 18 18 17 17 16 17 17 17 17 17 17 15 15 15 16 16 16 16 16 15 14 13 13 13 14 14
23 22 21 20 19 19 18 18 17 17 16 16 16 16 16 16 15 15 14 15 15 15 16 16 16 15 14 13 13 13 13 13
23 22 21 21 20 19 19 18 18 17 17 16 15 15 15 15 15 15 14 14 14 15 15 16 16 15 14 14 13 13 13 13
21 20 20 20 20 19 19 18 18 18 17 16 15 15 15 15 15 15 14 13 14 14 15 15 16 16 14 13 13 13 13 13
20 19 20 19 19 19 18 18 17 16 15 15 15 14 14 14 14 14 13 13 12 13 14 14 15 15 13 13 12 13 12 12
20 19 18 19 19 18 18 18 17 15 15 15 15 14 14 14 14 14 14 13 12 12 12 12 14 14 12 11 11 12 11 11
20 20 19 19 18 17 17 17 16 16 15 17 14 14 14 14 14 13 13 13 12 12 9 11 11 11 11 10 10 11 10 11
20 19 17 17 17 15 15 15 15 16 17 17 16 14 13 13 14 13 12 11 11 11 9 8 8 9 10 10 9 10 9 9
17 16 13 14 15 14 14 15 15 15 15 17 16 16 14 13 13 14 13 12 12 11 10 10 8 8 9 9 8 9 8 8
13 11 12 12 13 13 14 14 14 14 14 15 16 15 14 13 14 14 13 12 11 11 10 10 8 9 8 8 7 7 8 7
11 11 12 12 12 13 13 14 14 14 14 13 13 13 13 12 13 13 12 12 11 11 11 10 7 8 9 8 6 6 7 7
10 10 10 11 11 11 11 11 11 12 12 12 12 12 12 12 11 12 11 11 11 11 10 9 6 8 7 8 6 5 5 6
10 10 10 10 10 10 10 11 10 9 9 9 10 10 10 11 11 10 10 10 10 10 10 9 7 7 7 7 7 7 5 4
9 9 9 9 9 9 9 10 11 10 10 9 9 10 10 10 10 10 10 10 10 10 9 8 7 7 6 6 7 7 5 5
8 8 9 9 9 8 9 9 9 10 10 10 10 9 9 10 10 9 9 9 9 9 9 8 8 8 7 6 7 5 5 5
8 8 9 9 9 8 7 8 8 8 8 9 8 9 9 9 10 10 10 9 9 9 8 8 8 8 7 6 6 6 6 6
7 7 8 9 8 8 7 6 7 8 8 7 7 8 8 8 8 8 9 10 9 8 8 8 8 8 7 6 6 6 6 7

GFSFLT2_850_temp_222.txt.gz
Temp
23 22 21 20 20 19 19 19 19 19 19 18 18 18 18 18 18 18 18 18 18 18 18 17 17 17 16 16 15 15 14 13
22 22 21 20 19 19 18 18 19 19 18 18 18 18 18 18 18 18 18 18 18 18 18 17 17 16 16 15 15 14 14 13
22 22 22 21 20 19 18 18 18 18 18 17 17 17 17 17 16 17 17 17 17 17 17 16 17 16 15 15 15 13 13 14
22 22 21 20 20 19 19 18 17 17 17 17 16 16 14 16 16 17 17 16 16 16 16 16 16 15 14 14 13 13 13 14
18 18 18 18 20 19 19 18 17 16 16 15 15 14 14 14 15 16 15 15 15 15 15 15 15 15 15 14 13 13 13 13
18 18 19 19 18 17 19 18 18 18 16 15 15 15 15 15 14 15 14 14 14 14 14 14 15 14 14 13 12 12 13 13
17 17 20 20 19 17 16 18 17 18 17 16 15 15 15 14 15 16 13 13 14 14 14 14 13 12 11 12 12 12 12 12
17 17 16 20 19 19 19 19 19 18 18 16 15 15 15 15 14 15 14 13 14 13 13 13 12 13 11 12 12 12 11 11
16 17 15 16 17 16 17 16 17 18 16 15 15 15 15 15 15 14 14 14 14 12 12 12 12 13 11 11 11 11 11 10
14 18 16 14 15 15 15 15 15 15 14 15 14 15 15 15 14 13 14 13 13 12 10 10 11 10 9 9 10 10 10 10
13 13 13 13 15 14 15 15 14 15 15 15 15 15 16 16 14 14 13 13 13 12 12 12 9 10 9 9 10 9 9 9
11 11 12 13 14 14 13 13 14 14 14 15 15 15 16 15 14 13 13 13 13 11 12 11 10 9 8 9 9 9 9 9
11 11 12 12 13 13 13 14 13 14 14 14 13 14 14 14 14 14 13 13 13 12 11 11 8 8 8 8 8 8 8 8
9 9 9 9 10 11 11 12 13 13 13 13 14 14 13 14 13 13 14 13 12 12 11 9 8 9 9 8 7 7 7 8
8 9 9 9 9 9 10 10 11 11 11 12 12 12 13 13 12 12 12 13 12 11 11 10 10 9 8 9 6 7 6 7
8 8 8 8 9 9 9 8 9 10 11 11 9 10 10 11 11 12 12 11 11 11 11 11 10 10 8 8 9 9 6 5
8 9 9 9 10 9 9 9 8 8 9 10 11 10 9 10 9 10 11 11 11 11 11 10 10 10 9 8 8 8 8 7
8 9 9 8 9 9 9 9 9 8 8 8 8 9 9 8 9 9 8 9 9 10 10 10 10 10 9 8 9 7 7 6
5 5 6 6 5 5 5 6 7 9 8 7 6 8 8 8 8 8 7 9 7 8 9 9 9 9 9 8 8 9 7 7
5 5 4 4 4 5 4 5 6 5 7 8 7 6 6 6 7 7 9 8 8 7 7 8 8 9 8 8 7 8 6 7